CCA2817 ZBTJ-ZGSZ

Flight info

Callsign CCA2817
Flight time 2h 53m
Altitude 36100
Route OMDEK2W OMDEK W37 OMBEB R473 NOLON W90 POU W7 SAREX SAREX3
Aircraft B738/M-SDE2E3FGHIRWXY/LB1

Departure

Time 2026-04-29 11:28
Airport Tianjin Binhai International Airport (ZBTJ)

Arrival

Time 2026-04-29 14:21
Airport Shenzhen Bao'an International Airport (ZGSZ)
Time Latitude Longitude Altitude Speed Heading
2026-04-29 10:53 39.12711 117.35683 18 ft 0 kts 64°
2026-04-29 11:09 39.12710 117.35680 17 ft 1 kts 64°
2026-04-29 11:09 39.12704 117.35664 17 ft 2 kts 64°
2026-04-29 11:09 39.12698 117.35646 17 ft 2 kts 64°
2026-04-29 11:10 39.12691 117.35628 17 ft 2 kts 63°
2026-04-29 11:10 39.12691 117.35611 17 ft 2 kts 123°
2026-04-29 11:10 39.12703 117.35599 17 ft 2 kts 164°
2026-04-29 11:10 39.12716 117.35593 17 ft 2 kts 151°
2026-04-29 11:11 39.12721 117.35590 17 ft 0 kts 152°
2026-04-29 11:13 39.12716 117.35593 17 ft 2 kts 154°
2026-04-29 11:13 39.12683 117.35613 17 ft 7 kts 154°
2026-04-29 11:13 39.12624 117.35638 17 ft 8 kts 176°
2026-04-29 11:14 39.12564 117.35636 17 ft 9 kts 181°
2026-04-29 11:14 39.12484 117.35630 16 ft 12 kts 183°
2026-04-29 11:14 39.12399 117.35625 14 ft 9 kts 174°
2026-04-29 11:14 39.12338 117.35653 14 ft 9 kts 158°
2026-04-29 11:15 39.12289 117.35625 14 ft 8 kts 240°
2026-04-29 11:15 39.12259 117.35548 15 ft 10 kts 244°
2026-04-29 11:15 39.12226 117.35460 16 ft 11 kts 244°
2026-04-29 11:15 39.12188 117.35358 17 ft 13 kts 244°
2026-04-29 11:16 39.12149 117.35251 19 ft 13 kts 244°
2026-04-29 11:16 39.12110 117.35146 20 ft 12 kts 244°
2026-04-29 11:16 39.12059 117.35107 20 ft 9 kts 165°
2026-04-29 11:16 39.11997 117.35141 19 ft 11 kts 154°
2026-04-29 11:17 39.11904 117.35197 18 ft 17 kts 154°
2026-04-29 11:17 39.11772 117.35278 16 ft 24 kts 154°
2026-04-29 11:17 39.11616 117.35374 16 ft 24 kts 154°
2026-04-29 11:17 39.11463 117.35468 15 ft 23 kts 154°
2026-04-29 11:18 39.11315 117.35558 14 ft 22 kts 154°
2026-04-29 11:18 39.11239 117.35594 14 ft 7 kts 185°
2026-04-29 11:18 39.11207 117.35566 15 ft 1 kts 237°
2026-04-29 11:18 39.11206 117.35564 15 ft 0 kts 238°
2026-04-29 11:25 39.11206 117.35563 15 ft 0 kts 238°
2026-04-29 11:25 39.11201 117.35552 15 ft 2 kts 241°
2026-04-29 11:26 39.11168 117.35465 18 ft 8 kts 244°
2026-04-29 11:26 39.11166 117.35398 20 ft 6 kts 319°
2026-04-29 11:26 39.11188 117.35382 20 ft 0 kts 333°
2026-04-29 11:27 39.11222 117.35361 19 ft 25 kts 334°
2026-04-29 11:27 39.11609 117.35123 16 ft 95 kts 333°
2026-04-29 11:27 39.12387 117.34645 24 ft 151 kts 334°
2026-04-29 11:28 39.13435 117.34009 361 ft 168 kts 332°
2026-04-29 11:28 39.14470 117.33356 983 ft 171 kts 331°
2026-04-29 11:28 39.15540 117.32672 1634 ft 171 kts 331°
2026-04-29 11:28 39.16600 117.32014 2112 ft 173 kts 332°
2026-04-29 11:29 39.17706 117.31337 2510 ft 178 kts 332°
2026-04-29 11:29 39.18823 117.30642 3007 ft 178 kts 332°
2026-04-29 11:29 39.19941 117.29945 3393 ft 185 kts 333°
2026-04-29 11:29 39.21143 117.29198 3661 ft 200 kts 333°
2026-04-29 11:30 39.22452 117.28389 3962 ft 215 kts 334°
2026-04-29 11:30 39.23843 117.27529 4297 ft 230 kts 334°
2026-04-29 11:30 39.25327 117.26610 4760 ft 239 kts 334°
2026-04-29 11:30 39.26876 117.25860 5368 ft 241 kts 348°
2026-04-29 11:31 39.28530 117.25800 5975 ft 242 kts 11°
2026-04-29 11:31 39.30095 117.26578 6675 ft 241 kts 30°
2026-04-29 11:31 39.31395 117.27935 7279 ft 247 kts 49°
2026-04-29 11:31 39.32277 117.29828 7916 ft 249 kts 65°
2026-04-29 11:32 39.32640 117.32028 8504 ft 257 kts 89°
2026-04-29 11:32 39.32294 117.34285 9183 ft 261 kts 108°
2026-04-29 11:32 39.31432 117.36395 9608 ft 276 kts 122°
2026-04-29 11:32 39.30071 117.38217 10004 ft 293 kts 144°
2026-04-29 11:33 39.28183 117.39259 10507 ft 304 kts 162°
2026-04-29 11:33 39.26056 117.39816 10928 ft 314 kts 166°
2026-04-29 11:33 39.23958 117.40554 11578 ft 315 kts 157°
2026-04-29 11:33 39.21963 117.41646 12236 ft 316 kts 151°
2026-04-29 11:34 39.19983 117.42918 12907 ft 319 kts 149°
2026-04-29 11:34 39.18002 117.44235 13574 ft 322 kts 149°
2026-04-29 11:34 39.16009 117.45536 14248 ft 325 kts 149°
2026-04-29 11:34 39.13970 117.46834 14767 ft 330 kts 150°
2026-04-29 11:35 39.11914 117.48121 14862 ft 330 kts 150°
2026-04-29 11:35 39.09860 117.49393 14866 ft 326 kts 150°
2026-04-29 11:35 39.07791 117.50625 14885 ft 328 kts 154°
2026-04-29 11:35 39.05563 117.51439 14862 ft 333 kts 171°
2026-04-29 11:36 39.03254 117.51334 14881 ft 339 kts 189°
2026-04-29 11:36 39.01012 117.50361 14888 ft 343 kts 204°
2026-04-29 11:36 38.98900 117.48737 14856 ft 368 kts 215°
2026-04-29 11:36 38.97025 117.46406 14888 ft 387 kts 233°
2026-04-29 11:37 38.95586 117.43424 14861 ft 390 kts 242°
2026-04-29 11:37 38.94356 117.40373 14863 ft 389 kts 244°
2026-04-29 11:37 38.93164 117.37251 14874 ft 389 kts 245°
2026-04-29 11:37 38.91973 117.34131 14888 ft 388 kts 244°
2026-04-29 11:38 38.90762 117.31016 14878 ft 389 kts 244°
2026-04-29 11:38 38.89549 117.27953 14876 ft 389 kts 244°
2026-04-29 11:38 38.88319 117.24896 14881 ft 387 kts 243°
2026-04-29 11:38 38.87058 117.21797 14867 ft 387 kts 243°
2026-04-29 11:39 38.85815 117.18759 14871 ft 387 kts 243°
2026-04-29 11:39 38.84551 117.15681 14866 ft 387 kts 243°
2026-04-29 11:39 38.83306 117.12654 14878 ft 387 kts 243°
2026-04-29 11:39 38.82048 117.09597 14868 ft 388 kts 243°
2026-04-29 11:40 38.80800 117.06566 14875 ft 386 kts 243°
2026-04-29 11:40 38.79538 117.03502 14875 ft 387 kts 243°
2026-04-29 11:40 38.78283 117.00459 14877 ft 389 kts 243°
2026-04-29 11:40 38.77026 116.97414 14876 ft 387 kts 243°
2026-04-29 11:41 38.75774 116.94383 14874 ft 386 kts 243°
2026-04-29 11:41 38.74505 116.91323 14876 ft 387 kts 243°
2026-04-29 11:41 38.73232 116.88294 14878 ft 386 kts 243°
2026-04-29 11:41 38.71955 116.85283 14874 ft 387 kts 243°
2026-04-29 11:42 38.70671 116.82266 14874 ft 386 kts 243°
2026-04-29 11:42 38.69384 116.79245 14877 ft 387 kts 243°
2026-04-29 11:42 38.68096 116.76221 14875 ft 385 kts 243°
2026-04-29 11:42 38.66825 116.73234 14876 ft 386 kts 243°
2026-04-29 11:43 38.65567 116.70216 14876 ft 386 kts 245°
2026-04-29 11:43 38.64550 116.67022 14874 ft 384 kts 255°
2026-04-29 11:43 38.64075 116.63708 14880 ft 381 kts 268°
2026-04-29 11:43 38.64010 116.60326 14879 ft 379 kts 273°
2026-04-29 11:44 38.64090 116.56995 14879 ft 379 kts 275°
2026-04-29 11:44 38.64225 116.53602 14879 ft 379 kts 276°
2026-04-29 11:44 38.64366 116.50259 14880 ft 379 kts 276°
2026-04-29 11:44 38.64497 116.46880 14880 ft 379 kts 275°
2026-04-29 11:45 38.64613 116.43538 14876 ft 380 kts 275°
2026-04-29 11:45 38.64716 116.40156 14874 ft 380 kts 275°
2026-04-29 11:45 38.64807 116.36817 14873 ft 380 kts 275°
2026-04-29 11:45 38.64896 116.33417 14877 ft 379 kts 274°
2026-04-29 11:46 38.64982 116.30045 14878 ft 380 kts 274°
2026-04-29 11:46 38.65066 116.26698 14881 ft 380 kts 274°
2026-04-29 11:46 38.65152 116.23323 14879 ft 380 kts 274°
2026-04-29 11:46 38.65232 116.19954 14877 ft 380 kts 273°
2026-04-29 11:47 38.65113 116.16567 14876 ft 382 kts 264°
2026-04-29 11:47 38.64416 116.13303 14879 ft 386 kts 248°
2026-04-29 11:47 38.63020 116.10376 14884 ft 389 kts 232°
2026-04-29 11:47 38.61068 116.07919 15405 ft 397 kts 219°
2026-04-29 11:48 38.58834 116.05872 16152 ft 398 kts 210°
2026-04-29 11:48 38.56368 116.04305 16904 ft 399 kts 202°
2026-04-29 11:48 38.53766 116.03023 17531 ft 403 kts 198°
2026-04-29 11:48 38.51109 116.01863 18173 ft 406 kts 197°
2026-04-29 11:49 38.48444 116.00726 18830 ft 409 kts 197°
2026-04-29 11:49 38.45708 115.99534 19463 ft 413 kts 197°
2026-04-29 11:49 38.43001 115.98312 20042 ft 417 kts 198°
2026-04-29 11:49 38.40267 115.97045 20608 ft 422 kts 198°
2026-04-29 11:50 38.37492 115.95740 21200 ft 426 kts 198°
2026-04-29 11:50 38.34747 115.94438 21753 ft 429 kts 198°
2026-04-29 11:50 38.31907 115.93092 22352 ft 432 kts 197°
2026-04-29 11:50 38.29094 115.91838 22862 ft 435 kts 194°
2026-04-29 11:51 38.26160 115.90875 23389 ft 436 kts 188°
2026-04-29 11:51 38.23183 115.90220 23901 ft 437 kts 184°
2026-04-29 11:51 38.20135 115.89716 24379 ft 440 kts 182°
2026-04-29 11:51 38.17091 115.89284 24919 ft 441 kts 182°
2026-04-29 11:52 38.14032 115.88869 25391 ft 444 kts 182°
2026-04-29 11:52 38.10954 115.88448 25872 ft 446 kts 183°
2026-04-29 11:52 38.07830 115.88011 26323 ft 449 kts 183°
2026-04-29 11:52 38.04731 115.87565 26785 ft 451 kts 184°
2026-04-29 11:53 38.01586 115.87100 27215 ft 453 kts 184°
2026-04-29 11:53 37.98431 115.86626 27646 ft 455 kts 184°
2026-04-29 11:53 37.95292 115.86149 28005 ft 458 kts 185°
2026-04-29 11:53 37.92088 115.85658 28384 ft 461 kts 185°
2026-04-29 11:54 37.88908 115.85168 28777 ft 462 kts 185°
2026-04-29 11:54 37.85719 115.84663 29160 ft 464 kts 185°
2026-04-29 11:54 37.82499 115.84141 29516 ft 466 kts 185°
2026-04-29 11:54 37.79258 115.83610 29876 ft 468 kts 185°
2026-04-29 11:55 37.76009 115.83040 30246 ft 470 kts 187°
2026-04-29 11:55 37.72840 115.82217 30661 ft 468 kts 193°
2026-04-29 11:55 37.69742 115.81035 31336 ft 460 kts 199°
2026-04-29 11:55 37.66769 115.79612 31933 ft 452 kts 202°
2026-04-29 11:56 37.63873 115.78058 32447 ft 446 kts 205°
2026-04-29 11:56 37.61074 115.76471 32886 ft 441 kts 206°
2026-04-29 11:56 37.58260 115.74837 33297 ft 437 kts 207°
2026-04-29 11:56 37.55524 115.73237 33874 ft 429 kts 208°
2026-04-29 11:57 37.52792 115.71641 34202 ft 428 kts 208°
2026-04-29 11:57 37.50033 115.70036 34454 ft 429 kts 207°
2026-04-29 11:57 37.47327 115.68472 34730 ft 429 kts 207°
2026-04-29 11:57 37.44588 115.66899 35009 ft 429 kts 207°
2026-04-29 11:58 37.41842 115.65325 35297 ft 428 kts 207°
2026-04-29 11:58 37.40929 115.64796 35391 ft 428 kts 208°
2026-04-29 11:58 37.39113 115.63729 35596 ft 427 kts 208°
2026-04-29 11:58 37.33724 115.60503 36115 ft 426 kts 208°
2026-04-29 11:59 37.28295 115.57240 36198 ft 429 kts 208°
2026-04-29 11:59 37.22940 115.54041 36205 ft 425 kts 208°
2026-04-29 12:00 37.17549 115.50832 36205 ft 428 kts 208°
2026-04-29 12:00 37.12159 115.47633 36202 ft 428 kts 208°
2026-04-29 12:01 37.06764 115.44440 36208 ft 426 kts 208°
2026-04-29 12:01 37.01382 115.41260 36208 ft 426 kts 209°
2026-04-29 12:02 36.96011 115.38092 36214 ft 425 kts 209°
2026-04-29 12:02 36.90686 115.34956 36214 ft 424 kts 208°
2026-04-29 12:03 36.85339 115.31812 36213 ft 424 kts 208°
2026-04-29 12:03 36.80011 115.28683 36215 ft 424 kts 208°
2026-04-29 12:04 36.74659 115.25545 36214 ft 425 kts 208°
2026-04-29 12:04 36.69355 115.22441 36218 ft 423 kts 208°
2026-04-29 12:05 36.64033 115.19327 36218 ft 423 kts 208°
2026-04-29 12:05 36.58712 115.16218 36217 ft 421 kts 209°
2026-04-29 12:06 36.53406 115.13121 36211 ft 424 kts 209°
2026-04-29 12:06 36.48042 115.10004 36200 ft 424 kts 208°
2026-04-29 12:07 36.42719 115.06921 36202 ft 422 kts 209°
2026-04-29 12:07 36.37345 115.03981 36204 ft 424 kts 205°
2026-04-29 12:08 36.31575 115.02250 36207 ft 432 kts 193°
2026-04-29 12:08 36.25598 115.01514 36206 ft 434 kts 189°
2026-04-29 12:09 36.19532 115.00990 36208 ft 436 kts 189°
2026-04-29 12:09 36.13509 115.00455 36208 ft 433 kts 190°
2026-04-29 12:10 36.07516 114.99886 36326 ft 431 kts 191°
2026-04-29 12:10 36.04541 114.99593 36190 ft 432 kts 191°
2026-04-29 12:10 36.01530 114.99289 36214 ft 436 kts 191°
2026-04-29 12:11 35.95473 114.98676 36213 ft 435 kts 191°
2026-04-29 12:11 35.89463 114.98070 36217 ft 432 kts 191°
2026-04-29 12:12 35.83419 114.97456 36212 ft 433 kts 191°
2026-04-29 12:12 35.77434 114.96850 36221 ft 432 kts 191°
2026-04-29 12:13 35.71405 114.96240 36216 ft 433 kts 191°
2026-04-29 12:13 35.65391 114.95629 36220 ft 433 kts 191°
2026-04-29 12:14 35.59376 114.95024 36220 ft 432 kts 191°
2026-04-29 12:14 35.53385 114.94423 36222 ft 431 kts 191°
2026-04-29 12:15 35.47355 114.93815 36224 ft 430 kts 192°
2026-04-29 12:15 35.41381 114.93217 36228 ft 431 kts 192°
2026-04-29 12:16 35.35392 114.92615 36225 ft 431 kts 192°
2026-04-29 12:16 35.29380 114.92016 36227 ft 429 kts 192°
2026-04-29 12:17 35.23399 114.91419 36229 ft 429 kts 192°
2026-04-29 12:17 35.17432 114.90822 36229 ft 428 kts 192°
2026-04-29 12:18 35.11473 114.90228 36230 ft 428 kts 192°
2026-04-29 12:18 35.05515 114.89635 36230 ft 427 kts 192°
2026-04-29 12:19 34.99575 114.89047 36230 ft 427 kts 192°
2026-04-29 12:19 34.93630 114.88455 36243 ft 426 kts 192°
2026-04-29 12:20 34.87671 114.87865 36234 ft 426 kts 192°
2026-04-29 12:20 34.81770 114.87280 36240 ft 426 kts 192°
2026-04-29 12:21 34.75851 114.86697 36239 ft 425 kts 192°
2026-04-29 12:21 34.69916 114.86110 36237 ft 425 kts 193°
2026-04-29 12:22 34.63985 114.85523 36237 ft 427 kts 192°
2026-04-29 12:22 34.58087 114.84945 36235 ft 426 kts 192°
2026-04-29 12:23 34.52143 114.84360 36242 ft 425 kts 193°
2026-04-29 12:23 34.46252 114.83785 36243 ft 425 kts 193°
2026-04-29 12:24 34.40333 114.83207 36246 ft 424 kts 193°
2026-04-29 12:24 34.34395 114.82622 36250 ft 425 kts 193°
2026-04-29 12:25 34.28472 114.82043 36251 ft 425 kts 193°
2026-04-29 12:26 34.19657 114.81185 36254 ft 425 kts 193°
2026-04-29 12:26 34.13716 114.80607 36256 ft 425 kts 193°
2026-04-29 12:27 34.07817 114.80039 36259 ft 424 kts 193°
2026-04-29 12:27 34.01879 114.79470 36260 ft 424 kts 193°
2026-04-29 12:28 33.95994 114.78906 36253 ft 424 kts 193°
2026-04-29 12:28 33.90121 114.78346 36257 ft 421 kts 193°
2026-04-29 12:29 33.84248 114.77782 36257 ft 424 kts 193°
2026-04-29 12:29 33.78391 114.77208 36256 ft 420 kts 193°
2026-04-29 12:30 33.72546 114.76620 36256 ft 422 kts 193°
2026-04-29 12:30 33.66651 114.76038 36258 ft 421 kts 193°
2026-04-29 12:31 33.60759 114.75493 36259 ft 422 kts 193°
2026-04-29 12:31 33.54888 114.74937 36260 ft 421 kts 194°
2026-04-29 12:32 33.49101 114.74342 36266 ft 420 kts 194°
2026-04-29 12:32 33.43264 114.73747 36262 ft 418 kts 193°
2026-04-29 12:33 33.37400 114.73175 36266 ft 420 kts 194°
2026-04-29 12:33 33.31568 114.72616 36256 ft 420 kts 194°
2026-04-29 12:34 33.25734 114.72055 36261 ft 420 kts 194°
2026-04-29 12:34 33.19910 114.71495 36266 ft 419 kts 194°
2026-04-29 12:35 33.14110 114.70931 36270 ft 417 kts 194°
2026-04-29 12:35 33.08308 114.70352 36256 ft 418 kts 194°
2026-04-29 12:36 33.02521 114.69779 36273 ft 417 kts 194°
2026-04-29 12:36 32.96735 114.69205 36252 ft 419 kts 194°
2026-04-29 12:37 32.90933 114.68639 36271 ft 416 kts 194°
2026-04-29 12:37 32.85128 114.68071 36273 ft 417 kts 194°
2026-04-29 12:38 32.79391 114.67531 36271 ft 416 kts 194°
2026-04-29 12:38 32.73603 114.66986 36268 ft 414 kts 194°
2026-04-29 12:39 32.67879 114.66450 36273 ft 416 kts 194°
2026-04-29 12:39 32.62096 114.65903 36262 ft 415 kts 194°
2026-04-29 12:40 32.56334 114.65360 36263 ft 416 kts 194°
2026-04-29 12:40 32.50561 114.64821 36266 ft 415 kts 194°
2026-04-29 12:41 32.44777 114.64276 36264 ft 416 kts 194°
2026-04-29 12:41 32.39037 114.63743 36268 ft 412 kts 194°
2026-04-29 12:42 32.33331 114.63201 36267 ft 412 kts 194°
2026-04-29 12:42 32.27565 114.62631 36264 ft 416 kts 195°
2026-04-29 12:43 32.21838 114.62070 36270 ft 412 kts 194°
2026-04-29 12:43 32.16092 114.61509 36270 ft 414 kts 194°
2026-04-29 12:44 32.10380 114.60957 36271 ft 412 kts 195°
2026-04-29 12:44 32.04667 114.60400 36275 ft 413 kts 195°
2026-04-29 12:45 31.98923 114.59843 36271 ft 411 kts 194°
2026-04-29 12:45 31.93222 114.59296 36269 ft 409 kts 195°
2026-04-29 12:46 31.87537 114.58742 36273 ft 411 kts 194°
2026-04-29 12:46 31.81820 114.58192 36274 ft 410 kts 194°
2026-04-29 12:47 31.76102 114.57640 36270 ft 411 kts 194°
2026-04-29 12:47 31.70349 114.57087 36268 ft 412 kts 194°
2026-04-29 12:48 31.64646 114.56543 36268 ft 411 kts 194°
2026-04-29 12:48 31.58976 114.56003 36273 ft 409 kts 194°
2026-04-29 12:49 31.53245 114.55447 36269 ft 409 kts 194°
2026-04-29 12:49 31.47567 114.54908 36274 ft 409 kts 194°
2026-04-29 12:50 31.41886 114.54361 36272 ft 411 kts 194°
2026-04-29 12:50 31.36167 114.53818 36275 ft 411 kts 194°
2026-04-29 12:51 31.30484 114.53284 36282 ft 410 kts 194°
2026-04-29 12:51 31.24904 114.52388 36276 ft 400 kts 202°
2026-04-29 12:52 31.19713 114.50229 36286 ft 393 kts 211°
2026-04-29 12:52 31.14824 114.47526 36290 ft 388 kts 213°
2026-04-29 12:53 31.09935 114.44732 36293 ft 388 kts 213°
2026-04-29 12:53 31.05029 114.41970 36295 ft 389 kts 212°
2026-04-29 12:54 31.00128 114.39243 36296 ft 388 kts 213°
2026-04-29 12:54 30.95244 114.36540 36240 ft 389 kts 212°
2026-04-29 12:54 30.92811 114.35197 36484 ft 389 kts 213°
2026-04-29 12:55 30.90312 114.33834 36312 ft 392 kts 212°
2026-04-29 12:55 30.85372 114.31241 36309 ft 388 kts 211°
2026-04-29 12:56 30.80431 114.28675 36287 ft 391 kts 211°
2026-04-29 12:56 30.75501 114.26036 36289 ft 391 kts 212°
2026-04-29 12:57 30.70594 114.23357 36284 ft 386 kts 212°
2026-04-29 12:57 30.65690 114.20683 36285 ft 392 kts 212°
2026-04-29 12:58 30.60752 114.17999 36284 ft 390 kts 212°
2026-04-29 12:58 30.55847 114.15343 36285 ft 390 kts 212°
2026-04-29 12:59 30.50939 114.12690 36286 ft 389 kts 211°
2026-04-29 12:59 30.46021 114.10027 36281 ft 390 kts 212°
2026-04-29 13:00 30.41104 114.07372 36283 ft 389 kts 211°
2026-04-29 13:00 30.36211 114.04733 36280 ft 390 kts 211°
2026-04-29 13:01 30.31282 114.02082 36279 ft 390 kts 212°
2026-04-29 13:01 30.26347 113.99427 36276 ft 392 kts 211°
2026-04-29 13:02 30.21424 113.96787 36277 ft 390 kts 211°
2026-04-29 13:02 30.16465 113.94132 36276 ft 393 kts 211°
2026-04-29 13:03 30.11514 113.91489 36271 ft 389 kts 212°
2026-04-29 13:03 30.06591 113.88859 36273 ft 390 kts 211°
2026-04-29 13:04 30.01666 113.86227 36277 ft 392 kts 211°
2026-04-29 13:04 29.96731 113.83599 36272 ft 393 kts 211°
2026-04-29 13:05 29.91762 113.80959 36277 ft 392 kts 211°
2026-04-29 13:05 29.86585 113.78767 36279 ft 401 kts 201°
2026-04-29 13:06 29.80961 113.77879 36277 ft 410 kts 193°
2026-04-29 13:06 29.75232 113.77503 36278 ft 412 kts 191°
2026-04-29 13:07 29.69482 113.77177 36276 ft 410 kts 192°
2026-04-29 13:07 29.63727 113.76817 36274 ft 411 kts 192°
2026-04-29 13:08 29.58006 113.76434 36275 ft 410 kts 192°
2026-04-29 13:08 29.52300 113.76047 36276 ft 408 kts 192°
2026-04-29 13:09 29.46626 113.75656 36278 ft 411 kts 192°
2026-04-29 13:09 29.40911 113.75259 36276 ft 409 kts 193°
2026-04-29 13:10 29.35228 113.74869 36282 ft 408 kts 192°
2026-04-29 13:10 29.29550 113.74474 36288 ft 411 kts 192°
2026-04-29 13:11 29.23847 113.74078 36292 ft 409 kts 192°
2026-04-29 13:11 29.18098 113.73993 36295 ft 417 kts 188°
2026-04-29 13:12 29.12325 113.74238 36296 ft 414 kts 187°
2026-04-29 13:12 29.06554 113.74488 36295 ft 415 kts 187°
2026-04-29 13:13 29.00805 113.74696 36296 ft 415 kts 188°
2026-04-29 13:13 28.95041 113.74879 36299 ft 413 kts 188°
2026-04-29 13:14 28.89297 113.75050 36298 ft 414 kts 188°
2026-04-29 13:14 28.83532 113.75214 36295 ft 415 kts 188°
2026-04-29 13:15 28.77777 113.75382 36290 ft 413 kts 188°
2026-04-29 13:15 28.72001 113.75478 36286 ft 410 kts 191°
2026-04-29 13:16 28.66344 113.75123 36281 ft 408 kts 193°
2026-04-29 13:16 28.60657 113.74623 36280 ft 408 kts 193°
2026-04-29 13:17 28.55010 113.74158 36281 ft 408 kts 193°
2026-04-29 13:17 28.49350 113.73719 36272 ft 407 kts 193°
2026-04-29 13:18 28.43690 113.73298 36276 ft 408 kts 193°
2026-04-29 13:18 28.38032 113.72881 36274 ft 409 kts 193°
2026-04-29 13:19 28.32321 113.72463 36274 ft 408 kts 193°
2026-04-29 13:19 28.26676 113.72053 36281 ft 408 kts 193°
2026-04-29 13:20 28.20977 113.71644 36274 ft 408 kts 193°
2026-04-29 13:20 28.15302 113.71227 36271 ft 409 kts 193°
2026-04-29 13:21 28.09631 113.70795 36272 ft 407 kts 193°
2026-04-29 13:21 28.03974 113.70296 36268 ft 410 kts 193°
2026-04-29 13:22 27.98283 113.69774 36269 ft 410 kts 193°
2026-04-29 13:22 27.92616 113.69258 36266 ft 408 kts 194°
2026-04-29 13:23 27.86937 113.68750 36267 ft 409 kts 193°
2026-04-29 13:23 27.81233 113.68236 36266 ft 411 kts 193°
2026-04-29 13:24 27.75543 113.67730 36267 ft 408 kts 193°
2026-04-29 13:24 27.69876 113.67226 36277 ft 408 kts 193°
2026-04-29 13:25 27.64197 113.66721 36267 ft 410 kts 193°
2026-04-29 13:25 27.55615 113.66403 36267 ft 412 kts 189°
2026-04-29 13:26 27.49841 113.66337 36259 ft 414 kts 189°
2026-04-29 13:26 27.44104 113.66248 36259 ft 414 kts 190°
2026-04-29 13:27 27.38337 113.66138 36262 ft 414 kts 190°
2026-04-29 13:27 27.32578 113.66016 36257 ft 414 kts 190°
2026-04-29 13:28 27.26808 113.65890 36258 ft 415 kts 190°
2026-04-29 13:28 27.21031 113.65820 36257 ft 415 kts 188°
2026-04-29 13:29 27.15231 113.66496 36252 ft 428 kts 178°
2026-04-29 13:29 27.09408 113.68035 36255 ft 432 kts 175°
2026-04-29 13:30 27.03573 113.69812 36258 ft 435 kts 174°
2026-04-29 13:30 26.97755 113.71591 36265 ft 432 kts 174°
2026-04-29 13:31 26.91940 113.73338 36264 ft 434 kts 174°
2026-04-29 13:31 26.86089 113.75073 36260 ft 433 kts 175°
2026-04-29 13:32 26.80260 113.76794 36259 ft 432 kts 175°
2026-04-29 13:32 26.74439 113.78503 36254 ft 432 kts 175°
2026-04-29 13:33 26.68663 113.80260 36259 ft 433 kts 174°
2026-04-29 13:33 26.62842 113.82098 36260 ft 431 kts 173°
2026-04-29 13:34 26.57089 113.83915 36259 ft 432 kts 173°
2026-04-29 13:34 26.51298 113.85734 36259 ft 433 kts 174°
2026-04-29 13:35 26.45521 113.87498 36261 ft 427 kts 174°
2026-04-29 13:35 26.39729 113.89169 36259 ft 430 kts 175°
2026-04-29 13:36 26.33921 113.90823 36251 ft 431 kts 175°
2026-04-29 13:36 26.28160 113.92479 36252 ft 429 kts 174°
2026-04-29 13:37 26.22343 113.94148 36257 ft 429 kts 174°
2026-04-29 13:37 26.16567 113.95813 36258 ft 429 kts 174°
2026-04-29 13:38 26.10788 113.97477 36258 ft 429 kts 175°
2026-04-29 13:38 26.04998 113.99141 36258 ft 429 kts 174°
2026-04-29 13:39 25.99211 114.00809 36256 ft 433 kts 174°
2026-04-29 13:39 25.93391 114.02534 36248 ft 431 kts 174°
2026-04-29 13:40 25.87601 114.04266 36254 ft 430 kts 174°
2026-04-29 13:40 25.81832 114.05987 36252 ft 431 kts 174°
2026-04-29 13:41 25.76032 114.07710 36258 ft 431 kts 174°
2026-04-29 13:41 25.70212 114.09435 36249 ft 431 kts 173°
2026-04-29 13:42 25.64403 114.11150 36247 ft 432 kts 173°
2026-04-29 13:42 25.58579 114.12872 36238 ft 434 kts 173°
2026-04-29 13:43 25.52781 114.14586 36235 ft 432 kts 173°
2026-04-29 13:43 25.46950 114.16304 36233 ft 434 kts 173°
2026-04-29 13:44 25.41123 114.18025 36226 ft 433 kts 173°
2026-04-29 13:45 25.29035 114.21583 36224 ft 433 kts 173°
2026-04-29 13:45 25.23208 114.23296 36228 ft 434 kts 173°
2026-04-29 13:46 25.17326 114.25019 36224 ft 436 kts 172°
2026-04-29 13:46 25.11472 114.26553 36219 ft 430 kts 178°
2026-04-29 13:47 25.05603 114.26571 36229 ft 416 kts 193°
2026-04-29 13:47 24.99909 114.25459 36227 ft 416 kts 197°
2026-04-29 13:48 24.94251 114.24143 36226 ft 415 kts 197°
2026-04-29 13:48 24.88611 114.22845 36220 ft 416 kts 197°
2026-04-29 13:49 24.82909 114.21570 36216 ft 415 kts 197°
2026-04-29 13:49 24.77217 114.20319 36213 ft 419 kts 197°
2026-04-29 13:50 24.71514 114.19077 36121 ft 418 kts 197°
2026-04-29 13:50 24.68652 114.18455 35821 ft 419 kts 197°
2026-04-29 13:50 24.65793 114.17835 35526 ft 419 kts 196°
2026-04-29 13:51 24.62957 114.17221 35234 ft 418 kts 197°
2026-04-29 13:51 24.60080 114.16598 34941 ft 421 kts 197°
2026-04-29 13:51 24.57195 114.15972 34651 ft 422 kts 197°
2026-04-29 13:51 24.54335 114.15351 34360 ft 422 kts 197°
2026-04-29 13:52 24.51429 114.14720 34067 ft 425 kts 197°
2026-04-29 13:52 24.48501 114.14085 33774 ft 427 kts 197°
2026-04-29 13:52 24.45583 114.13454 33484 ft 428 kts 197°
2026-04-29 13:52 24.42688 114.12830 33198 ft 429 kts 196°
2026-04-29 13:53 24.39718 114.12174 32906 ft 430 kts 198°
2026-04-29 13:53 24.36838 114.11379 32642 ft 429 kts 201°
2026-04-29 13:53 24.34012 114.10268 32378 ft 428 kts 207°
2026-04-29 13:53 24.31344 114.08872 32118 ft 426 kts 212°
2026-04-29 13:54 24.28772 114.07302 31856 ft 425 kts 214°
2026-04-29 13:54 24.26236 114.05628 31593 ft 425 kts 216°
2026-04-29 13:54 24.23715 114.03867 31329 ft 426 kts 217°
2026-04-29 13:54 24.21236 114.02096 31070 ft 429 kts 217°
2026-04-29 13:55 24.18736 114.00305 30807 ft 429 kts 217°
2026-04-29 13:55 24.16241 113.98528 30544 ft 429 kts 217°
2026-04-29 13:55 24.13718 113.96740 30282 ft 432 kts 217°
2026-04-29 13:55 24.11236 113.94901 30022 ft 431 kts 220°
2026-04-29 13:56 24.08883 113.92888 29762 ft 429 kts 223°
2026-04-29 13:56 24.06635 113.90775 29502 ft 431 kts 225°
2026-04-29 13:56 24.04404 113.88579 29239 ft 431 kts 226°
2026-04-29 13:56 24.02178 113.86349 28976 ft 432 kts 226°
2026-04-29 13:57 23.99970 113.84129 28720 ft 432 kts 226°
2026-04-29 13:57 23.97752 113.81908 28470 ft 433 kts 226°
2026-04-29 13:57 23.95516 113.79678 28222 ft 436 kts 226°
2026-04-29 13:57 23.94026 113.78199 28057 ft 436 kts 226°
2026-04-29 13:58 23.91030 113.75236 27728 ft 436 kts 225°
2026-04-29 13:58 23.88761 113.73003 27479 ft 438 kts 225°
2026-04-29 13:58 23.86492 113.70771 27233 ft 439 kts 225°
2026-04-29 13:58 23.84223 113.68543 26986 ft 439 kts 225°
2026-04-29 13:59 23.81922 113.66288 26738 ft 441 kts 225°
2026-04-29 13:59 23.79643 113.64055 26492 ft 443 kts 225°
2026-04-29 13:59 23.77352 113.61813 26246 ft 443 kts 225°
2026-04-29 13:59 23.75050 113.59563 26001 ft 444 kts 225°
2026-04-29 14:00 23.72743 113.57308 25756 ft 446 kts 225°
2026-04-29 14:00 23.70445 113.55064 25513 ft 446 kts 225°
2026-04-29 14:00 23.68117 113.52792 25264 ft 446 kts 225°
2026-04-29 14:00 23.65831 113.50561 25021 ft 445 kts 225°
2026-04-29 14:01 23.63502 113.48290 24776 ft 444 kts 225°
2026-04-29 14:01 23.61227 113.46073 24534 ft 442 kts 225°
2026-04-29 14:01 23.58925 113.43831 24287 ft 442 kts 225°
2026-04-29 14:01 23.56627 113.41614 24043 ft 441 kts 224°
2026-04-29 14:02 23.54241 113.39506 23798 ft 442 kts 220°
2026-04-29 14:02 23.51646 113.37748 23563 ft 445 kts 212°
2026-04-29 14:02 23.48809 113.36345 23329 ft 447 kts 206°
2026-04-29 14:02 23.45903 113.35172 23092 ft 446 kts 204°
2026-04-29 14:03 23.42954 113.34102 22859 ft 447 kts 202°
2026-04-29 14:03 23.39975 113.33061 22622 ft 446 kts 202°
2026-04-29 14:03 23.37051 113.32042 22380 ft 434 kts 202°
2026-04-29 14:03 23.34234 113.31050 22148 ft 420 kts 202°
2026-04-29 14:04 23.31485 113.30066 21913 ft 407 kts 202°
2026-04-29 14:04 23.28819 113.29094 21678 ft 395 kts 203°
2026-04-29 14:04 23.26272 113.28153 21459 ft 384 kts 204°
2026-04-29 14:04 23.23766 113.27215 21224 ft 376 kts 204°
2026-04-29 14:05 23.21296 113.26280 20884 ft 376 kts 204°
2026-04-29 14:05 23.18833 113.25345 20544 ft 374 kts 204°
2026-04-29 14:05 23.16357 113.24403 20189 ft 372 kts 204°
2026-04-29 14:05 23.13929 113.23502 19847 ft 370 kts 202°
2026-04-29 14:06 23.11418 113.22790 19502 ft 372 kts 194°
2026-04-29 14:06 23.08842 113.22556 19154 ft 377 kts 184°
2026-04-29 14:06 23.06208 113.22879 18810 ft 382 kts 172°
2026-04-29 14:06 23.03698 113.23830 18467 ft 387 kts 159°
2026-04-29 14:07 23.01350 113.25332 18120 ft 390 kts 148°
2026-04-29 14:07 22.99257 113.27186 17775 ft 391 kts 141°
2026-04-29 14:07 22.97387 113.29298 17428 ft 392 kts 131°
2026-04-29 14:07 22.95863 113.31747 17088 ft 393 kts 123°
2026-04-29 14:08 22.94546 113.34361 16746 ft 393 kts 119°
2026-04-29 14:08 22.93330 113.37019 16396 ft 390 kts 118°
2026-04-29 14:08 22.92154 113.39661 16048 ft 388 kts 118°
2026-04-29 14:08 22.90977 113.42276 15698 ft 385 kts 119°
2026-04-29 14:09 22.89684 113.44757 15343 ft 381 kts 127°
2026-04-29 14:09 22.87866 113.46801 14986 ft 370 kts 150°
2026-04-29 14:09 22.85573 113.47894 14636 ft 356 kts 172°
2026-04-29 14:09 22.83120 113.48093 14182 ft 348 kts 188°
2026-04-29 14:10 22.80711 113.47875 13720 ft 344 kts 190°
2026-04-29 14:10 22.78342 113.47643 13237 ft 342 kts 189°
2026-04-29 14:10 22.75980 113.47431 12764 ft 340 kts 189°
2026-04-29 14:10 22.73644 113.47243 12293 ft 337 kts 188°
2026-04-29 14:11 22.71311 113.47068 11813 ft 335 kts 188°
2026-04-29 14:11 22.68982 113.46899 11328 ft 333 kts 188°
2026-04-29 14:11 22.66674 113.46730 10844 ft 330 kts 188°
2026-04-29 14:11 22.64414 113.46561 10567 ft 321 kts 188°
2026-04-29 14:12 22.62217 113.46403 10424 ft 309 kts 187°
2026-04-29 14:12 22.60072 113.46467 10174 ft 305 kts 175°
2026-04-29 14:12 22.58111 113.47259 9933 ft 307 kts 149°
2026-04-29 14:12 22.56625 113.48948 9691 ft 308 kts 125°
2026-04-29 14:13 22.55612 113.50968 9455 ft 303 kts 120°
2026-04-29 14:13 22.54691 113.52959 9212 ft 297 kts 120°
2026-04-29 14:13 22.53760 113.54938 8954 ft 291 kts 120°
2026-04-29 14:13 22.52827 113.56861 8692 ft 285 kts 121°
2026-04-29 14:14 22.51901 113.58717 8466 ft 280 kts 122°
2026-04-29 14:14 22.50978 113.60541 8224 ft 275 kts 122°
2026-04-29 14:14 22.50064 113.62344 7924 ft 271 kts 122°
2026-04-29 14:14 22.49160 113.64133 7683 ft 266 kts 121°
2026-04-29 14:15 22.48388 113.65916 7437 ft 264 kts 114°
2026-04-29 14:15 22.47763 113.67780 7225 ft 261 kts 111°
2026-04-29 14:15 22.47191 113.69624 6949 ft 257 kts 111°
2026-04-29 14:15 22.46626 113.71435 6707 ft 254 kts 111°
2026-04-29 14:16 22.46053 113.73241 6464 ft 251 kts 112°
2026-04-29 14:16 22.45486 113.75006 6223 ft 248 kts 112°
2026-04-29 14:16 22.44928 113.76742 5982 ft 245 kts 110°
2026-04-29 14:16 22.44530 113.78545 5732 ft 244 kts 95°
2026-04-29 14:17 22.44797 113.80304 5495 ft 241 kts 66°
2026-04-29 14:17 22.45591 113.81881 5273 ft 237 kts 58°
2026-04-29 14:17 22.46439 113.83388 5029 ft 233 kts 59°
2026-04-29 14:17 22.47237 113.84911 4722 ft 229 kts 61°
2026-04-29 14:18 22.47992 113.86410 4361 ft 225 kts 58°
2026-04-29 14:18 22.48948 113.87699 3998 ft 220 kts 35°
2026-04-29 14:18 22.50359 113.88220 3635 ft 214 kts 358°
2026-04-29 14:18 22.51756 113.87788 3284 ft 212 kts 334°
2026-04-29 14:19 22.53060 113.87014 2914 ft 210 kts 335°
2026-04-29 14:19 22.54351 113.86330 2477 ft 210 kts 338°
2026-04-29 14:19 22.55648 113.85657 2092 ft 196 kts 337°
2026-04-29 14:19 22.56819 113.85016 1633 ft 192 kts 335°
2026-04-29 14:20 22.57969 113.84294 1115 ft 186 kts 334°
2026-04-29 14:20 22.59076 113.83686 783 ft 164 kts 340°
2026-04-29 14:20 22.60049 113.83182 581 ft 149 kts 337°
2026-04-29 14:20 22.60955 113.82667 390 ft 147 kts 338°
2026-04-29 14:21 22.61867 113.82183 220 ft 144 kts 339°
2026-04-29 14:21 22.62766 113.81696 31 ft 142 kts 339°
2026-04-29 14:21 22.63493 113.81304 20 ft 77 kts 333°
2026-04-29 14:21 22.63790 113.81138 20 ft 31 kts 333°
2026-04-29 14:22 22.63966 113.80995 20 ft 29 kts 309°
2026-04-29 14:22 22.64029 113.80897 20 ft 3 kts 303°
2026-04-29 14:22 22.64041 113.80878 20 ft 2 kts 304°
2026-04-29 14:22 22.64049 113.80864 20 ft 1 kts 301°
2026-04-29 14:23 22.64053 113.80855 20 ft 1 kts 295°
2026-04-29 14:24 22.64053 113.80854 20 ft 0 kts 294°
2026-04-29 14:24 22.64056 113.80846 20 ft 4 kts 289°
2026-04-29 14:24 22.64086 113.80798 20 ft 11 kts 318°
2026-04-29 14:24 22.64137 113.80736 20 ft 10 kts 317°
2026-04-29 14:25 22.64192 113.80698 20 ft 7 kts 324°
2026-04-29 14:25 22.64209 113.80655 20 ft 6 kts 256°
2026-04-29 14:25 22.64189 113.80610 20 ft 7 kts 243°
2026-04-29 14:25 22.64165 113.80559 20 ft 7 kts 243°
2026-04-29 14:26 22.64139 113.80505 20 ft 8 kts 244°
2026-04-29 14:26 22.64111 113.80445 20 ft 9 kts 243°
2026-04-29 14:26 22.64081 113.80381 20 ft 9 kts 243°
2026-04-29 14:26 22.64050 113.80313 20 ft 10 kts 245°
2026-04-29 14:27 22.64051 113.80249 20 ft 8 kts 299°
2026-04-29 14:27 22.64077 113.80205 20 ft 6 kts 303°
2026-04-29 14:27 22.64100 113.80167 20 ft 5 kts 303°
2026-04-29 14:28 22.64134 113.80083 20 ft 7 kts 324°
2026-04-29 14:28 22.64172 113.80061 20 ft 4 kts 333°
2026-04-29 14:28 22.64193 113.80049 20 ft 2 kts 334°
2026-04-29 14:28 22.64207 113.80042 20 ft 2 kts 334°
2026-04-29 14:29 22.64220 113.80035 20 ft 1 kts 334°
2026-04-29 14:29 22.64224 113.80033 20 ft 0 kts 334°
2026-04-29 14:29 22.64224 113.80032 20 ft 0 kts 334°
2026-04-29 14:29 22.64226 113.80032 20 ft 0 kts 334°